Regional Weather Roundup
Issued by NWS Sioux Falls, SD

Home | Current Version | Previous Version | Text Only | Print | Product List | Glossary On
Versions: 1 2 3 4 5 6 7 8 9 10 11 12 13 14 15 16 17 18 19 20 21 22 23 24 25 26 27 28 29 30 31 32 33 34 35 36 37 38 39 40 41 42 43 44 45 46 47 48 49 50
000
ASUS43 KFSD 210302
RWRFSD

WEATHER ROUNDUP FOR SE SOUTH DAKOTA/SW MINNESOTA/NW IOWA
NATIONAL WEATHER SERVICE SIOUX FALLS SD
1000 PM CDT WED SEP 20 2017

NOTE: "FAIR" INDICATES FEW OR NO CLOUDS BELOW 12,000 FEET WITH NO
SIGNIFICANT WEATHER AND OR OBSTRUCTIONS TO VISIBILITY.


SDZ038>040-050-052>070-210400-
SOUTHEAST SOUTH DAKOTA

CITY           SKY/WX    TMP DP  RH WIND       PRES   REMARKS
BROOKINGS      CLEAR     57  47  69 SE9       29.91S
CHAMBERLAIN    CLEAR     59  46  61 E9        29.84R
HURON          CLEAR     61  46  57 SE12      29.84S
MADISON        FAIR      55  50  82 S9        29.92R
MITCHELL       CLEAR     60  48  64 S9        29.87S
SIOUX FALLS    CLEAR     54  50  86 CALM      29.91R
WINNER         FAIR      63  40  42 S13       29.83S
YANKTON        CLEAR     61  50  67 SE5       29.89S
$$

MNZ071-072-080-081-089-090-097-098-210400-
SOUTHWEST MINNESOTA

CITY           SKY/WX    TMP DP  RH WIND       PRES   REMARKS
FAIRMONT       CLEAR     55  52  89 CALM      29.92R
JACKSON        CLEAR     54  50  87 CALM      29.93R
LUVERNE        CLEAR     52  46  82 CALM      29.92S
MARSHALL       CLEAR     54  49  83 SW6       29.92R
MONTEVIDEO     CLEAR     55  50  82 S5        29.91S
PIPESTONE      CLEAR     57  46  67 CALM      29.93R
REDWOOD FALLS  CLEAR     59  51  75 CALM      29.91R
TRACY          CLEAR     57  51  80 CALM      29.92R
WORTHINGTON    CLEAR     54  48  80 W3        29.93R
$$

IAZ001>003-012>014-020>022-031-032-NEZ013-014-SDZ071-210400-
NORTHWEST IOWA

CITY           SKY/WX    TMP DP  RH WIND       PRES   REMARKS
CHEROKEE       CLEAR     55  54  97 CALM      29.91R
DENISON        CLEAR     57  55  94 CALM      29.91S
ESTHERVILLE    CLEAR     54  53  97 CALM      29.91R
LE MARS        CLEAR     55  54  94 CALM      29.91S
ORANGE CITY    CLEAR     63  48  59 CALM      29.92S
SHELDON        CLEAR     52  50  93 CALM      29.91R
SIOUX CITY     CLEAR     55  52  89 CALM      29.90R
SPENCER        CLEAR     53  50  89 NW3       29.92R
STORM LAKE     CLEAR     61  46  59 N5        29.92R
$$

ABBREVIATIONS USED IN REMARKS
   TC - TEMPERATURE IN CELSIUS
  WCI - WIND CHILL INDEX
   HX - HEAT INDEX
  VSB - VISIBILITY





USA.gov is the U.S. government's official web portal to all federal, state and local government web resources and services.